ELECTRON KICK STAGE R/B, 59590

Orbit data source: Space-Track

ELECTRON KICK STAGE R/B, 59590 is space debris in SSO originally from a launch on Tue, 23 Apr 2024 UTC launched from the Rocket Lab Launch Complex (RLLC). Debris objects in space refer to the collection of defunct objects orbiting the Earth. Examples of debris include non-operational satellites, rocket bodies, and fragments generated from explosions, collisions, or faulty payload assembly.

Loading next visibility...
Identifier
59590, 2024-077D
Orbit
SSO
Country
Flag of USUS
Related business
Manufacturer
Rocket Lab
Mission
Spacecraft
Bus & Motor
KICK STAGE, CURIE
Mass
~50 kg wet, ~50 kg dry
Launch date (UTC)
2024-04-23 (1 year ago)
Launch vehicle
Unknown
Launch site
Rocket Lab Launch Complex (RLLC)
Object type
Payload
Rocket body
Debris
Shape & HBR
Unknown
Radar Cross Section
Medium (>0.1 m² and <1 m²)

Expand to show TLE details & history
Last TLE update: 17 hours ago

TLE from 17 hours ago
0 ELECTRON KICK STAGE R/B
1 59590U 24077D   25261.24500502  .00005558  00000-0  54288-3 0  9995
2 59590  97.3370 286.2564 0356858  31.4256 330.7737 14.55174517 74302
Epoch: 2025-09-18T05:52Z
TLE epoch observation values (Epoch: 2025-09-18T05:52:48.433Z)
Latitude
0.00004°
Longitude
-159.35478°
Altitude
493.305 km
Speed
7.735 km/s
True Right ascension
19h 05m 01s
True Declination
0° 00' 00"
Sunlit
Object was in daylight at epoch
Visualization orbit readout
Latitude
Unknown
Longitude
Unknown
Altitude
Unknown
Speed
Unknown
Apparent Right ascension
Unknown
Apparent Declination
Unknown
Sunlit
N/A
Visualization observer readout
Local Sidereal Time
15:24:56
Azimuth
Unknown
Elevation
Unknown
Doppler factor
Unknown
Orbital elements
Apogee altitude
958.64 km
Perigee altitude
453.045 km
Semi-major axis
7,083.979 km
Eccentricity
0.03569
Inclination
97.337°
RAAN
286.2564°
Arg. of periapsis
31.4256°
True anomaly
328.69678°
Mean anomaly
330.7737°
Eccentric anomaly
329.74346°
Mean motion
3.64022 °/min
Orbital period
98.9 mins
BSTAR
0.00054288
Loading maneuver chart data...
Computing Atmospheric mass density...
Loading historical data...
Loading historical data...
Loading historical data...
Loading historical data...
Loading historical data...
Loading historical data...
Loading historical data...
Other satellites on launch #77 in the year 2024 (2024-04-23 UTC)

Documentation

Showing up to 5 results
|